Location: Grand Lay
(47.3253°N, 0.9468°E)
Time: 06:44:21
(UTC+00:00)

Cosmos 1633 Rocket - Pass Details

Date: 18 January 2026
Orbit: 600 x 616 km, 82.5° (Epoch: 17 February)

Event Time Altitude Azimuth Distance (km) Brightness Sun altitude
Rises 06:20:53 0° 194° (SSW) 2,855 6.5 -12.6°
Reaches altitude 10° 06:23:06 10° 197° (SSW) 1,954 5.6 -12.2°
Maximum altitude 06:27:24 68° 281° (W) 656 2.9 -11.5°
Drops below altitude 10° 06:31:44 10° 4° (N) 1,961 5.5 -10.9°
Sets 06:33:58 0° 8° (N) 2,867 6.4 -10.5°
